SCP
0 0 0 0 0 0 0 0 0 0 0 0 0 0 0 0 0 0 0 0 0 0 0 0 0 0 0 0 0 0 0 0 0 0 0 0 0 0 0 0 0 0 0
0 0 0 0 0 0 0 0 0 0 0 0 0 0 0 0 0 0 0 0 0 0 0 0 0 0 0 0 0 0 0 0 0 0 0 0 0 0 0 0 0 0 0
0 0 0 0 0 0 0 0 0 0 0 0 0 0 0 0 0 0 0 0 0 0 0 0 0 0 0 0 0 0 0 0 0 0 0 0 0 0 0 0 0 0 0
0 0 0 0 0 0 0 0 0 0 0 0 0 0 0 0 0 0 0 0 0 0 0 0 0 0 0 0 0 0 0 0 0 0 0 0 0 0 0 0 0 0 0
0 0 0 0 0 0 0 0 0 0 0 0 0 0 0 0 0 0 0 0 0 0 0 0 0 0 0 0 0 0 0 0 0 0 0 0 0 0 0 0 0 0 0
0 0 0 0 0 0 0 0 0 0 0 0 0 0 0 0 0 0 0 0 0 0 0 0 0 0 0 0 0 0 0 0 0 0 0 0 0 0 0 0 0 0 0
0 0 0 0 0 0 0 0 0 0 0 0 0 0 0 0 0 0 0 0 0 0 0 0 0 0 0 0 0 0 0 0 0 0 0 0 0 0 0 0 0 0 0
0 0 0 0 0 0 0 0 0 0 0 0 0 0 0 0 0 0 0 0 0 0 0 0 0 0 0 0 0 0 0 0 0 0 0 0 0 0 0 0 0 0 0
0 0 0 0 0 0 0 0 0 0 0 0 0 0 0 0 0 0 0 0 0 0 0 0 0 0 0 0 0 0 0 0 0 0 0 0 0 0 0 0 0 0 0
0 0 0 0 0 0 0 0 0 0 0 0 0 0 0 0 0 0 0 0 0 0 0 0 0 0 0 0 0 0 0 0 0 0 0 0 0 0 0 0 0 0 0
0 0 0 0 0 0 0 0 0 0 0 0 0 0 0 0 0 0 0 0 0 0 0 0 0 0 0 0 0 0 0 0 0 0 0 0 0 0 0 0 0 0 0
0 0 0 0 0 0 0 0 0 0 0 0 0 0 0 0 0 0 0 0 0 0 0 0 0 0 0 0 0 0 0 0 0 0 0 0 0 0 0 0 0 0 0
0 0 0 0 0 0 0 0 0 0 0 0 0 0 0 0 0 0 0 0 0 0 0 0 0 0 0 0 0 0 0 0 0 0 0 0 0 0 0 0 0 0 0
0 0 0 0 0 0 0 0 0 0 0 0 0 0 0 0 0 0 0 0 0 0 0 0 0 0 0 0 0 0 0 0 0 0 0 0 0 0 0 0 0 0 0
0 0 0 0 0 0 0 0 0 0 0 0 0 0 0 0 0 0 0 0 0 0 0 0 0 0 0 0 0 0 0 0 0 0 0 0 0 0 0 0 0 0 0
0 0 0 0 0 0 0 0 0 0 0 0 0 0 0 0 0 0 0 0 0 0 0 0 0 0 0 0 0 0 0 0 0 0 0 0 0 0 0 0 0 0 0
0 0 0 0 0 0 0 0 0 0 0 0 0 0 0 0 0 0 0 0 0 0 0 0 0 0 0 0 0 0 0 0 0 0 0 0 0 0 0 0 0 0 0
0 0 0 0 0 0 0 0 0 0 0 0 0 0 0 0 0 0 0 0 0 0 0 0 0 0 0 0 0 0 0 0 0 0 0 0 0 0 0 0 0 0 0
0 0 0 0 0 0 0 0 0 0 0 0 0 0 0 0 0 0 0 0 0 0 0 0 0 0 0 0 0 0 0 0 0 0 0 0 0 0 0 0 0 0 0
0 0 0 0 0 0 0 0 0 0 0 0 0 0 0 0 0 0 0 0 0 0 0 0 0 0 0 0 0 0 0 0 0 0 0 0 0 0 0 0 0 0 0
0 0 0 0 0 0 0 0 0 0 0 0 0 0 0 0 0 0 0 0 0 0 0 0 0 0 0 0 0 0 0 0 0 0 0 0 0 0 0 0 0 0 0
0 0 0 0 0 0 0 0 0 0 0 0 0 0 0 0 0 0 0 0 0 0 0 0 0 0 0 0 0 0 0 0 0 0 0 0 0 0 0 0 0 0 0
0 0 0 0 0 0 0 0 0 0 0 0 0 0 0 0 0 0 0 0 0 0 0 0 0 0 0 0 0 0 0 0 0 0 0 0 0 0 0 0 0 0 0
0 0 0 0 0 0 0 0 0 0 0 0 0 0 0 0 0 0 0 0 0 0 0 0 0 0 0 0 0 0 0 0 0 0 0 0 0 0 0 0 0 0 0
0 0 0 0 0 0 0 0 0 0 0 0 0 0 0 0 0 0 0 0 0 0 0 0 0 0 0 0 0 0 0 0 0 0 0 0 0 0 0 0 0 0 0
0 0 0 0 0 0 0 0 0 0 0 0 0 0 0 0 0 0 0 0 0 0 0 0 0 0 0 0 0 0 0 0 0 0 0 0 0 0 0 0 0 0 0
Wind_Speed
9 9 7 6 6 6 7 6 5 4 3 2 2 2 1 1 2 1 1 1 1 2 2 2 3 3 2 2 3 2 2 1 1 2 2 1 2 2 2 2 2 3 3
9 9 8 6 6 6 7 7 6 5 4 2 2 2 2 1 1 1 2 2 2 2 2 3 2 3 3 3 3 2 2 1 1 1 1 1 2 2 2 1 2 2 2
10 10 9 8 6 7 6 7 7 6 5 4 2 2 2 1 2 2 2 2 2 3 3 2 2 2 3 2 1 2 2 1 2 2 1 1 0 1 1 2 2 2 3
9 9 9 8 7 7 7 7 7 7 6 6 4 3 2 2 2 2 1 1 2 3 2 2 2 3 2 2 1 2 1 2 1 2 1 1 2 1 0 2 1 2 3
9 10 9 8 7 6 5 5 6 6 6 6 5 3 3 2 2 2 2 2 2 2 2 2 2 2 2 3 3 2 2 1 1 1 1 2 1 1 1 0 1 1 2
8 9 8 7 6 6 5 4 5 5 5 6 6 4 4 3 3 3 2 2 2 1 1 1 2 2 2 3 2 2 2 2 2 2 1 1 1 1 1 1 0 1 1
9 9 9 8 6 7 6 5 5 6 5 5 5 6 5 4 4 3 2 2 2 1 1 1 1 2 2 2 2 2 2 2 2 2 2 2 2 1 2 2 1 1 0
8 9 9 8 7 7 6 6 6 6 6 5 5 6 6 3 2 3 3 3 2 2 2 2 1 2 2 3 2 2 1 2 2 2 2 2 2 2 2 1 1 1 1
7 9 9 9 8 8 6 6 7 6 6 5 5 5 6 4 4 3 3 2 2 3 3 3 2 2 2 3 3 2 2 3 3 2 2 2 1 2 2 1 1 1 1
7 8 9 8 7 7 7 6 6 7 6 5 4 4 5 5 4 4 3 3 2 2 3 3 3 3 3 3 3 2 2 2 2 2 3 3 2 2 2 2 1 1 1
7 7 7 8 7 7 6 6 5 5 6 6 5 5 5 5 5 3 3 2 3 3 3 3 3 3 3 3 2 2 2 2 1 1 2 2 3 2 2 2 2 2 2
7 7 7 7 7 7 7 6 6 6 5 5 5 5 5 5 4 4 3 3 3 3 3 3 3 3 3 3 3 3 2 2 2 2 2 2 3 3 2 2 3 2 2
7 7 6 7 7 6 6 6 6 5 6 5 5 6 5 5 5 4 4 3 3 3 3 3 3 3 3 3 2 3 3 3 2 2 3 3 3 2 2 2 2 2 2
6 6 6 5 6 6 6 5 5 5 6 5 5 5 5 5 4 3 3 3 3 4 3 3 3 3 3 3 2 3 3 3 3 4 4 4 4 3 3 3 3 2 2
7 7 6 5 5 6 6 6 6 6 6 6 5 5 5 5 4 4 3 3 3 3 3 3 3 4 3 2 2 2 3 3 4 4 4 4 6 7 5 4 4 4 3
6 7 7 6 6 6 6 6 5 6 6 6 6 5 5 5 5 4 3 3 3 3 3 4 4 4 3 5 6 4 2 3 3 3 3 4 4 6 7 8 7 6 4
6 5 6 6 6 6 6 5 5 6 6 6 6 6 6 5 5 4 4 4 3 3 4 4 5 5 4 5 5 5 3 3 3 2 2 2 3 3 3 4 4 5 5
5 5 5 5 5 5 6 6 6 6 6 6 6 6 6 6 5 5 4 3 3 3 3 4 5 4 4 5 4 3 2 2 3 2 2 3 3 3 3 3 3 3 2
5 5 5 5 5 5 6 6 7 6 6 6 6 7 7 6 6 6 5 4 4 3 3 4 4 4 3 4 4 3 2 2 3 3 4 4 4 5 6 3 3 2 1
5 4 5 5 5 5 5 6 6 6 6 6 6 6 6 6 6 6 5 4 4 4 4 4 4 4 4 4 4 4 1 2 2 2 3 5 5 5 5 3 2 2 2
5 4 4 4 4 5 5 6 6 6 6 5 5 5 6 6 6 5 4 5 4 4 4 4 3 4 4 4 4 4 1 2 2 2 2 2 4 4 4 3 2 1 1
5 5 4 3 4 5 6 5 5 5 6 6 5 5 6 5 5 5 4 4 5 5 4 4 3 3 3 4 4 4 3 3 3 2 2 2 4 3 2 1 2 3 3
6 5 4 4 3 4 5 5 5 5 6 6 6 5 6 4 5 6 5 4 4 4 3 3 3 3 3 3 5 5 5 4 3 2 3 3 3 2 1 0 1 1 1
6 5 5 4 3 3 4 5 5 6 6 6 5 5 5 5 5 4 4 4 4 4 4 4 3 3 3 3 3 3 3 4 3 2 3 3 2 1 0 0 0 0 0
5 5 5 4 3 3 4 5 5 6 6 6 5 5 4 5 4 4 2 3 3 4 5 4 4 4 4 4 5 4 3 3 3 2 2 1 1 1 0 0 0 0 0
5 5 5 4 4 4 4 4 5 5 6 5 5 4 4 4 4 5 4 5 3 4 5 5 5 3 5 7 7 6 5 5 5 3 2 2 1 1 1 1 0 0 0
Wind_Direction
170 163 164 162 151 154 149 147 151 140 116 103 105 95 79 72 77 89 91 72 71 67 72 68 68 63 68 61 59 65 73 56 74 68 47 34 57 80 66 44 51 53 58
172 163 165 163 162 162 158 155 159 147 130 124 122 118 110 105 86 52 47 38 58 63 84 86 90 82 70 55 56 62 52 20 57 95 95 52 14 13 67 63 58 55 50
175 168 172 168 166 168 168 162 157 152 146 141 115 106 88 80 84 62 34 26 45 57 57 78 88 101 97 86 66 66 60 28 10 53 97 108 116 331 1 54 65 61 50
173 167 170 170 175 172 168 163 161 160 156 149 152 154 150 150 133 125 125 59 52 54 48 65 80 90 97 96 69 68 50 53 17 358 12 90 139 135 27 356 47 77 67
176 168 170 173 172 164 162 166 160 157 155 155 157 161 156 145 132 126 124 104 71 62 47 46 65 77 85 91 76 59 37 47 49 20 0 13 17 45 120 89 351 46 61
170 163 164 165 164 157 160 168 155 152 148 154 158 166 148 140 134 134 137 127 116 104 95 63 60 80 85 87 89 91 66 44 23 18 35 55 43 6 47 79 56 82 81
170 166 165 164 158 155 159 162 154 148 154 163 166 163 154 159 158 148 148 145 133 122 123 95 55 69 82 89 83 87 86 76 51 47 38 39 39 39 58 70 30 14 175
168 166 164 161 159 155 159 164 160 159 165 173 171 157 154 157 155 154 156 159 151 147 134 119 103 89 86 94 84 73 77 80 71 61 54 53 34 36 63 78 74 17 6
165 165 163 163 160 158 161 167 166 165 170 176 169 163 158 151 153 153 147 148 153 146 141 141 133 108 87 74 79 72 61 64 50 41 41 50 47 45 42 50 79 98 34
164 161 160 163 162 160 164 170 177 174 172 169 168 153 145 144 146 139 141 144 138 139 143 141 138 132 114 91 76 72 64 95 92 72 47 35 30 31 37 33 28 62 106
165 159 159 162 159 156 161 170 177 171 168 167 161 150 146 143 137 137 147 146 148 151 150 143 139 133 129 128 123 127 100 88 104 99 83 62 48 36 28 32 40 37 64
151 149 151 154 156 160 168 172 175 171 166 164 160 152 149 144 143 148 159 158 156 152 151 139 131 129 124 130 139 133 121 101 79 74 79 74 72 52 32 42 44 37 55
146 147 147 159 160 161 166 171 170 164 160 161 156 156 158 152 153 161 166 164 156 149 139 131 134 135 132 127 122 122 123 109 90 75 74 66 73 63 52 64 47 35 47
143 143 147 157 155 160 166 168 166 161 157 155 154 157 153 146 148 144 145 156 145 142 137 129 128 121 114 112 115 120 111 104 90 77 67 58 59 45 44 56 40 49 50
148 150 152 155 157 164 168 166 161 158 159 156 160 159 150 141 138 136 142 139 131 133 127 118 112 101 94 89 97 104 106 110 106 98 88 82 82 72 66 67 43 42 44
155 160 163 159 165 168 166 162 159 161 160 158 160 147 139 133 134 141 141 130 126 121 111 113 107 96 84 79 78 74 78 92 104 111 120 118 99 95 85 80 71 62 59
153 157 163 163 170 173 169 163 164 159 159 161 149 142 142 140 145 145 131 130 132 121 115 115 111 106 94 92 85 73 68 78 83 87 94 90 89 98 117 98 81 57 46
156 161 167 163 170 173 168 165 159 161 163 158 152 152 149 148 144 136 138 148 138 126 123 116 117 115 110 110 101 81 86 87 79 70 77 87 77 45 70 91 83 74 44
157 160 163 164 168 167 165 162 160 165 161 160 159 156 153 151 149 149 155 154 139 133 131 129 129 124 125 130 122 104 103 100 91 75 64 80 86 52 50 62 71 55 30
145 150 155 162 161 161 160 161 164 164 163 162 160 157 152 152 157 160 157 143 138 144 137 131 141 136 132 135 137 137 123 118 108 93 79 70 86 75 63 66 68 56 351
133 140 147 155 157 156 155 162 164 164 159 153 151 150 150 154 156 155 151 146 146 143 140 141 137 135 134 138 139 142 128 131 121 103 89 78 94 93 76 67 65 66 355
132 137 138 139 144 149 150 154 158 155 148 144 145 149 147 151 150 145 148 152 149 148 150 147 143 128 127 135 145 145 132 97 102 107 105 116 123 109 86 65 48 36 24
138 142 141 141 144 147 150 154 150 140 141 143 147 148 147 149 151 152 157 157 153 156 162 159 156 145 134 138 139 144 135 118 112 117 127 149 161 152 143 147 24 27 11
144 145 142 143 149 151 143 142 141 143 146 147 149 150 152 154 153 152 156 158 163 166 168 165 163 156 151 150 150 148 142 135 135 142 147 151 150 153 239 346 259 222 240
147 146 149 156 161 150 142 137 145 152 153 152 150 150 146 149 146 132 128 152 161 173 169 171 168 165 165 170 160 160 164 160 163 155 147 137 117 105 45 352 260 123 21
153 152 152 159 162 157 154 150 153 155 155 155 155 151 148 146 141 134 112 72 99 125 131 132 139 143 154 151 144 142 146 155 164 150 142 148 154 174 193 202 230 201 248